Location: Peyton Hall Observatory
(40.3466°N, 74.6516°W)
Time: 19:37:02
(UTC-05:00)

ISS - All Passes

Search period start: 20 February 2017 00:00
Search period end: 02 March 2017 00:00
Orbit: 399 x 408 km, 51.6° (Epoch: 21 February)

Date Brightness Start Highest point End Pass type
(mag) Time Alt. Az. Time Alt. Az. Time Alt. Az.
20 Feb - 09:08:55 10° SSW 09:11:46 27° SE 09:14:38 10° ENE daylight
20 Feb - 10:45:06 10° W 10:48:09 34° NNW 10:51:14 10° NE daylight
20 Feb - 12:23:44 10° NW 12:25:23 13° N 12:27:01 10° NNE daylight
20 Feb - 14:01:11 10° NNW 14:02:57 14° N 14:04:42 10° NE daylight
20 Feb - 15:36:59 10° NW 15:40:06 39° NNE 15:43:12 10° ESE daylight
20 Feb - 17:13:46 10° W 17:16:25 23° SW 17:19:02 10° S daylight
21 Feb - 08:17:37 10° SSE 08:19:30 14° SE 08:21:24 10° E daylight
21 Feb - 09:52:22 10° WSW 09:55:37 60° NW 09:58:53 10° NE daylight
21 Feb - 11:30:30 10° NW 11:32:37 16° NNW 11:34:45 10° NNE daylight
21 Feb - 13:08:47 10° NNW 13:10:09 12° N 13:11:32 10° NNE daylight
21 Feb - 14:44:41 10° NW 14:47:30 25° NNE 14:50:18 10° E daylight
21 Feb - 16:20:56 10° WNW 16:24:06 44° SW 16:27:13 10° SSE daylight
22 Feb - 08:59:53 10° SW 09:03:09 70° SE 09:06:27 10° ENE daylight
22 Feb - 10:37:20 10° WNW 10:39:54 21° NNW 10:42:29 10° NNE daylight
22 Feb - 12:16:04 10° NNW 12:17:20 12° N 12:18:37 10° NNE daylight
22 Feb - 13:52:26 10° NNW 13:54:50 18° NNE 13:57:13 10° ENE daylight
22 Feb - 15:28:23 10° NW 15:31:41 89° NE 15:34:56 10° SE daylight
23 Feb - 08:07:44 10° SSW 08:10:45 34° SE 08:13:47 10° ENE daylight
23 Feb - 09:44:17 10° W 09:47:14 30° NNW 09:50:12 10° NE daylight
23 Feb - 11:23:00 10° NW 11:24:31 13° N 11:26:02 10° NNE daylight
23 Feb - 13:00:09 10° NNW 13:02:04 14° NNE 13:03:59 10° NE daylight
23 Feb - 14:35:57 10° NW 14:39:10 47° NNE 14:42:20 10° ESE daylight
23 Feb - 16:13:02 10° W 16:15:23 18° SW 16:17:43 10° S daylight
24 Feb - 07:16:07 10° S 07:18:26 18° SE 07:20:44 10° E daylight
24 Feb - 08:51:25 10° WSW 08:54:38 49° NNW 08:57:52 10° NE daylight
24 Feb - 10:29:45 10° NW 10:31:42 15° NNW 10:33:40 10° NNE daylight
24 Feb - 12:07:46 10° NNW 12:09:16 12° N 12:10:45 10° NE daylight
24 Feb - 13:43:37 10° NW 13:46:33 29° NNE 13:49:28 10° E daylight
24 Feb - 15:20:01 10° WNW 15:23:02 35° SW 15:26:04 10° SSE daylight
25 Feb - 07:58:48 10° SW 08:02:06 88° SE 08:05:25 10° NE daylight
25 Feb - 09:36:30 10° WNW 09:38:56 19° NNW 09:41:22 10° NNE daylight
25 Feb - 11:15:08 10° NNW 11:16:25 12° N 11:17:41 10° NNE daylight
25 Feb - 12:51:19 10° NNW 12:53:51 20° NNE 12:56:23 10° ENE daylight
25 Feb - 14:27:20 10° WNW 14:30:37 73° SW 14:33:52 10° SE daylight
26 Feb - 07:06:30 10° SSW 07:09:38 43° SE 07:12:47 10° ENE daylight
26 Feb - 08:43:22 10° W 08:46:12 26° NNW 08:49:03 10° NE daylight
26 Feb - 10:22:08 10° NNW 10:23:33 12° N 10:24:57 10° NNE daylight
26 Feb - 11:59:00 10° NNW 12:01:05 15° NNE 12:03:10 10° NE daylight
26 Feb - 13:34:50 10° NW 13:38:05 58° NE 13:41:20 10° ESE daylight
26 Feb - 15:12:16 10° W 15:14:13 15° SW 15:16:09 10° SSW daylight
27 Feb - 06:14:38 10° S 06:17:14 22° SE 06:19:52 10° E daylight
27 Feb - 07:50:24 10° WSW 07:53:32 41° NNW 07:56:42 10° NE daylight
27 Feb - 09:28:53 10° NW 09:30:41 14° NNW 09:32:29 10° NNE daylight
27 Feb - 11:06:37 10° NNW 11:08:14 13° N 11:09:52 10° NE daylight
27 Feb - 12:42:25 10° NW 12:45:28 33° NNE 12:48:29 10° E daylight
27 Feb - 14:18:59 10° WNW 14:21:52 28° SW 14:24:44 10° SSE daylight
28 Feb - 05:23:47 10° SSE 05:24:55 11° SE 05:26:04 10° ESE visible
28 Feb - 06:57:39 10° WSW 07:00:57 75° NW 07:04:15 10° NE daylight
28 Feb - 08:35:34 10° WNW 08:37:51 17° NNW 08:40:09 10° NNE daylight
28 Feb - 10:14:03 10° NNW 10:15:21 12° N 10:16:40 10° NNE daylight
28 Feb - 11:50:04 10° NNW 11:52:45 22° NNE 11:55:26 10° ENE daylight
28 Feb - 13:26:11 10° WNW 13:29:26 58° SW 13:32:39 10° SE daylight
01 Mar - 06:05:12 10° SW 06:08:25 54° SE 06:11:39 10° ENE visible
01 Mar - 07:42:21 10° W 07:45:04 23° NNW 07:47:48 10° NNE daylight
01 Mar - 09:21:08 10° NNW 09:22:27 12° N 09:23:47 10° NNE daylight
01 Mar - 10:57:44 10° NNW 10:59:57 17° NNE 11:02:12 10° ENE daylight
01 Mar - 12:33:36 10° NW 12:36:54 71° NE 12:40:10 10° ESE daylight
01 Mar - 14:11:36 10° WSW 14:12:56 12° SW 14:14:16 10° SSW daylight
